QPF
0.00 0.00 0.00 0.00 0.00 0.00 0.00 0.00 0.00 0.00 0.00 0.00 0.00 0.00 0.00 0.00 0.00 0.00 0.00 0.00 0.00 0.00 0.00 0.00 0.00 0.00 0.00 0.00 0.00 0.00 0.00 0.00 0.00 0.00 0.00 0.00 0.00 0.00
0.00 0.00 0.00 0.00 0.01 0.00 0.00 0.00 0.00 0.00 0.00 0.00 0.00 0.00 0.00 0.00 0.00 0.00 0.00 0.00 0.00 0.00 0.00 0.00 0.00 0.00 0.00 0.00 0.00 0.00 0.00 0.00 0.00 0.00 0.00 0.00 0.00 0.00
0.00 0.00 0.00 0.00 0.01 0.02 0.01 0.00 0.00 0.00 0.00 0.00 0.00 0.00 0.00 0.00 0.00 0.00 0.00 0.00 0.00 0.00 0.00 0.00 0.00 0.00 0.00 0.00 0.00 0.00 0.00 0.00 0.00 0.00 0.00 0.00 0.00 0.00
0.00 0.00 0.00 0.00 0.01 0.01 0.01 0.00 0.00 0.00 0.00 0.00 0.00 0.00 0.00 0.00 0.00 0.00 0.00 0.00 0.00 0.00 0.00 0.00 0.00 0.00 0.00 0.00 0.00 0.00 0.00 0.00 0.00 0.00 0.00 0.00 0.00 0.00
0.00 0.00 0.00 0.00 0.00 0.01 0.01 0.00 0.00 0.01 0.00 0.00 0.00 0.00 0.00 0.00 0.00 0.00 0.00 0.00 0.00 0.00 0.00 0.00 0.00 0.00 0.00 0.00 0.00 0.00 0.00 0.00 0.00 0.00 0.00 0.00 0.00 0.00
0.00 0.00 0.00 0.00 0.00 0.00 0.00 0.00 0.00 0.00 0.00 0.00 0.00 0.00 0.00 0.00 0.00 0.00 0.00 0.00 0.00 0.00 0.00 0.00 0.00 0.00 0.00 0.00 0.00 0.00 0.00 0.00 0.00 0.00 0.00 0.00 0.00 0.00
0.00 0.00 0.00 0.00 0.00 0.00 0.00 0.00 0.00 0.00 0.00 0.00 0.00 0.00 0.00 0.00 0.00 0.00 0.00 0.01 0.01 0.01 0.00 0.00 0.00 0.00 0.00 0.00 0.00 0.00 0.00 0.00 0.00 0.00 0.00 0.00 0.00 0.00
0.00 0.00 0.00 0.00 0.00 0.00 0.00 0.00 0.00 0.00 0.01 0.01 0.01 0.00 0.00 0.00 0.00 0.00 0.00 0.00 0.00 0.00 0.00 0.00 0.00 0.00 0.00 0.00 0.00 0.00 0.00 0.00 0.00 0.00 0.00 0.00 0.00 0.00
0.00 0.00 0.00 0.00 0.00 0.00 0.00 0.00 0.00 0.00 0.01 0.02 0.00 0.00 0.00 0.00 0.00 0.00 0.00 0.00 0.00 0.00 0.00 0.00 0.00 0.00 0.00 0.00 0.00 0.00 0.00 0.00 0.00 0.00 0.00 0.00 0.00 0.00
0.00 0.00 0.00 0.00 0.00 0.00 0.00 0.00 0.00 0.00 0.00 0.00 0.00 0.00 0.00 0.00 0.00 0.00 0.00 0.00 0.00 0.00 0.00 0.00 0.00 0.00 0.00 0.00 0.00 0.00 0.00 0.00 0.00 0.00 0.00 0.00 0.00 0.00
0.00 0.00 0.00 0.00 0.00 0.01 0.01 0.01 0.00 0.00 0.00 0.00 0.00 0.00 0.00 0.00 0.00 0.00 0.00 0.01 0.01 0.00 0.00 0.00 0.00 0.00 0.00 0.00 0.00 0.00 0.00 0.00 0.00 0.00 0.00 0.00 0.00 0.00
0.00 0.00 0.00 0.01 0.03 0.03 0.03 0.02 0.01 0.00 0.00 0.00 0.00 0.00 0.00 0.01 0.02 0.01 0.01 0.02 0.03 0.03 0.01 0.01 0.00 0.00 0.00 0.00 0.00 0.00 0.00 0.00 0.00 0.00 0.00 0.00 0.00 0.00
0.00 0.01 0.01 0.04 0.07 0.07 0.06 0.04 0.02 0.02 0.02 0.01 0.01 0.01 0.01 0.01 0.02 0.03 0.02 0.03 0.04 0.03 0.01 0.01 0.00 0.00 0.00 0.00 0.00 0.00 0.00 0.00 0.00 0.00 0.00 0.00 0.00 0.00
0.02 0.03 0.05 0.07 0.08 0.10 0.07 0.04 0.03 0.02 0.00 0.00 0.01 0.01 0.01 0.01 0.01 0.02 0.02 0.02 0.02 0.02 0.02 0.00 0.00 0.00 0.00 0.00 0.00 0.00 0.00 0.00 0.00 0.00 0.00 0.00 0.00 0.00
0.02 0.05 0.09 0.11 0.11 0.09 0.05 0.04 0.02 0.01 0.00 0.00 0.00 0.00 0.01 0.02 0.06 0.06 0.03 0.02 0.02 0.02 0.01 0.00 0.00 0.00 0.00 0.00 0.00 0.00 0.00 0.00 0.00 0.00 0.00 0.00 0.00 0.00
0.06 0.06 0.09 0.09 0.10 0.08 0.04 0.01 0.00 0.00 0.00 0.00 0.00 0.03 0.06 0.06 0.03 0.02 0.01 0.00 0.00 0.00 0.00 0.00 0.00 0.00 0.00 0.00 0.00 0.00 0.00 0.00 0.00 0.00 0.00 0.00 0.00 0.00
0.43 0.14 0.08 0.05 0.05 0.04 0.02 0.01 0.01 0.00 0.00 0.00 0.00 0.01 0.01 0.01 0.01 0.00 0.00 0.00 0.00 0.00 0.00 0.00 0.00 0.00 0.00 0.00 0.00 0.00 0.00 0.00 0.00 0.00 0.00 0.00 0.00 0.00
0.86 0.68 0.32 0.12 0.07 0.05 0.03 0.02 0.01 0.00 0.00 0.00 0.00 0.00 0.00 0.00 0.00 0.00 0.00 0.00 0.00 0.00 0.00 0.00 0.00 0.00 0.00 0.00 0.00 0.00 0.00 0.00 0.00 0.00 0.00 0.00 0.00 0.00
0.26 0.39 0.46 0.41 0.19 0.12 0.12 0.10 0.04 0.01 0.00 0.00 0.00 0.00 0.00 0.00 0.00 0.00 0.00 0.00 0.00 0.00 0.00 0.00 0.00 0.00 0.00 0.00 0.00 0.00 0.00 0.00 0.00 0.00 0.00 0.00 0.00 0.00
0.09 0.13 0.16 0.20 0.23 0.22 0.18 0.12 0.07 0.04 0.02 0.01 0.01 0.01 0.00 0.00 0.00 0.01 0.00 0.00 0.00 0.00 0.00 0.01 0.00 0.00 0.00 0.00 0.00 0.00 0.01 0.00 0.00 0.00 0.00 0.00 0.00 0.00
0.13 0.16 0.18 0.17 0.16 0.11 0.11 0.10 0.07 0.06 0.05 0.03 0.03 0.01 0.01 0.01 0.01 0.02 0.01 0.01 0.01 0.01 0.02 0.04 0.05 0.04 0.03 0.01 0.01 0.02 0.01 0.00 0.00 0.00 0.00 0.00 0.00 0.00
0.19 0.20 0.21 0.23 0.23 0.17 0.14 0.11 0.09 0.07 0.04 0.02 0.02 0.03 0.03 0.03 0.02 0.03 0.04 0.04 0.03 0.03 0.05 0.08 0.07 0.04 0.02 0.01 0.00 0.00 0.01 0.00 0.00 0.00 0.00 0.00 0.00 0.00
0.07 0.13 0.20 0.24 0.23 0.19 0.20 0.18 0.14 0.11 0.09 0.06 0.05 0.04 0.04 0.03 0.04 0.05 0.06 0.07 0.07 0.06 0.05 0.04 0.03 0.01 0.01 0.00 0.00 0.00 0.00 0.00 0.00 0.00 0.00 0.00 0.00 0.00
MSLP
1016.33 1016.93 1017.28 1017.52 1017.97 1018.43 1018.69 1019.15 1020.04 1021.40 1021.34 1020.86 1020.96 1020.40 1020.85 1021.37 1021.71 1022.34 1022.84 1023.25 1023.79 1024.32 1024.80 1025.03 1025.37 1025.64 1025.81 1026.11 1026.46 1026.73 1026.91 1027.08 1027.16 1027.24 1027.34 1027.37 1027.31 1027.15
1015.68 1016.19 1016.58 1016.94 1017.32 1017.78 1018.15 1018.53 1018.83 1019.61 1020.17 1019.87 1019.79 1019.96 1020.31 1020.68 1021.13 1021.70 1022.18 1022.62 1023.14 1023.51 1023.92 1024.44 1024.85 1025.32 1025.50 1025.78 1026.11 1026.32 1026.54 1026.70 1026.79 1026.86 1026.91 1027.06 1026.98 1026.92
1014.61 1015.16 1015.57 1016.21 1016.72 1017.21 1017.53 1017.99 1018.47 1018.74 1019.32 1019.15 1019.30 1019.62 1020.09 1020.37 1020.78 1021.26 1021.66 1022.16 1022.52 1022.89 1023.46 1023.79 1024.27 1024.71 1024.98 1025.27 1025.62 1025.81 1026.03 1026.18 1026.29 1026.36 1026.39 1026.51 1026.52 1026.42
1013.50 1014.14 1014.79 1015.39 1015.93 1016.45 1016.93 1017.35 1017.72 1017.96 1018.35 1018.88 1019.08 1019.56 1019.67 1019.91 1020.27 1020.85 1021.16 1021.60 1021.87 1022.17 1022.57 1023.17 1023.36 1023.82 1024.18 1024.62 1024.89 1025.27 1025.43 1025.59 1025.83 1025.94 1025.98 1025.97 1026.00 1025.94
1012.32 1013.22 1013.63 1014.22 1014.94 1015.61 1016.14 1016.61 1017.00 1017.41 1017.71 1018.31 1018.75 1019.13 1019.39 1019.66 1020.34 1020.54 1020.91 1021.07 1021.28 1021.54 1021.87 1022.31 1022.77 1023.08 1023.42 1023.85 1024.13 1024.49 1024.76 1024.94 1025.14 1025.32 1025.34 1025.36 1025.55 1025.43
1011.21 1011.98 1012.42 1012.97 1013.62 1014.52 1015.20 1015.61 1016.11 1016.86 1017.25 1017.63 1018.15 1018.51 1018.80 1019.14 1019.47 1019.98 1020.44 1020.41 1020.70 1021.01 1021.25 1021.56 1022.04 1022.60 1022.93 1023.13 1023.49 1023.69 1023.91 1024.05 1024.29 1024.52 1024.49 1024.64 1024.76 1024.80
1010.30 1010.79 1011.45 1011.95 1012.48 1013.19 1013.97 1014.47 1015.25 1015.96 1016.58 1016.93 1017.51 1017.82 1018.08 1018.51 1018.54 1018.84 1019.37 1019.81 1020.10 1020.28 1020.82 1021.01 1021.69 1022.02 1022.09 1022.51 1022.83 1022.83 1023.09 1023.19 1023.27 1023.54 1023.85 1024.00 1024.17 1024.26
1009.30 1009.85 1010.34 1011.04 1011.55 1012.15 1012.68 1013.08 1013.58 1014.49 1015.38 1015.84 1016.26 1016.71 1016.70 1016.90 1017.38 1017.81 1018.56 1019.46 1020.01 1019.37 1020.10 1020.41 1020.83 1021.23 1021.25 1021.55 1021.54 1021.86 1022.01 1022.29 1022.51 1022.78 1023.14 1023.44 1023.60 1023.68
1008.14 1008.72 1009.46 1010.07 1010.66 1011.45 1011.83 1012.08 1012.47 1012.86 1013.15 1014.08 1014.87 1015.08 1015.27 1015.40 1016.08 1016.94 1017.53 1017.95 1018.23 1018.27 1019.02 1019.83 1020.39 1020.67 1020.40 1020.49 1020.64 1020.91 1021.24 1021.52 1021.82 1022.02 1022.42 1022.78 1022.96 1023.01
1007.02 1007.54 1008.03 1008.67 1009.45 1010.26 1010.98 1011.83 1012.18 1012.52 1012.67 1012.91 1012.93 1013.03 1013.55 1014.15 1014.56 1014.97 1015.65 1016.72 1017.80 1018.04 1018.18 1019.28 1019.48 1019.84 1019.93 1020.10 1020.11 1020.30 1020.54 1020.89 1021.18 1021.60 1021.81 1022.18 1022.30 1022.44
1006.14 1006.65 1007.04 1007.46 1008.03 1008.88 1009.89 1010.89 1011.43 1011.94 1012.41 1012.60 1012.89 1012.62 1013.03 1013.61 1014.09 1015.03 1015.74 1016.67 1017.49 1017.74 1017.79 1018.42 1019.32 1019.64 1019.85 1019.80 1019.85 1019.90 1020.14 1020.45 1020.84 1021.11 1021.41 1021.76 1022.03 1022.23
1005.27 1005.71 1006.20 1006.64 1007.31 1008.45 1008.93 1009.74 1010.54 1010.89 1011.93 1012.84 1013.19 1013.33 1013.48 1013.65 1014.00 1014.08 1014.88 1015.67 1016.51 1017.40 1017.33 1017.93 1019.10 1019.37 1020.36 1019.99 1020.08 1020.00 1020.16 1020.37 1020.65 1021.01 1021.30 1021.43 1021.61 1021.93
1004.11 1004.76 1005.35 1005.95 1006.58 1007.30 1007.76 1008.63 1008.91 1009.97 1011.25 1012.10 1012.73 1013.28 1013.56 1013.76 1013.79 1014.03 1014.11 1014.47 1015.60 1016.20 1016.59 1017.13 1018.56 1019.19 1019.73 1020.28 1020.41 1020.43 1020.33 1020.46 1020.59 1020.85 1021.00 1021.16 1021.32 1021.66
1003.00 1003.53 1004.25 1005.23 1005.92 1006.55 1007.43 1007.98 1008.81 1009.61 1010.69 1011.67 1012.41 1013.02 1013.41 1013.43 1013.52 1013.75 1014.00 1014.38 1014.73 1014.94 1015.84 1016.56 1017.71 1018.36 1019.32 1020.37 1020.76 1020.75 1020.54 1020.46 1020.55 1020.88 1020.73 1020.75 1020.98 1021.01
1001.99 1002.46 1003.36 1004.66 1005.75 1006.51 1007.08 1007.62 1008.59 1009.47 1010.40 1011.45 1012.07 1012.58 1012.85 1013.35 1013.81 1013.84 1014.46 1014.64 1015.14 1015.45 1015.90 1016.11 1016.71 1017.77 1018.58 1019.44 1020.17 1020.48 1020.71 1020.76 1020.54 1020.63 1020.53 1020.72 1020.98 1020.96
1002.91 1003.02 1003.78 1004.86 1005.61 1005.69 1007.21 1007.74 1008.21 1008.92 1009.74 1010.64 1011.46 1012.02 1012.75 1013.33 1013.87 1013.74 1014.83 1015.20 1015.73 1016.34 1016.19 1016.22 1016.60 1017.24 1018.53 1019.05 1019.50 1020.05 1020.46 1020.85 1020.86 1020.65 1020.54 1020.54 1020.61 1020.62
1004.64 1004.13 1004.25 1004.85 1005.68 1006.23 1007.07 1007.73 1008.33 1008.76 1009.57 1010.41 1011.24 1011.80 1012.21 1012.75 1013.34 1013.91 1014.37 1015.17 1015.82 1016.47 1016.78 1016.98 1017.20 1017.48 1018.03 1018.60 1019.46 1019.66 1020.25 1020.73 1020.80 1020.85 1020.63 1020.50 1020.41 1020.30
1003.52 1004.85 1005.13 1004.59 1005.24 1005.86 1006.54 1007.45 1008.10 1008.52 1009.06 1009.92 1010.64 1011.09 1011.70 1012.42 1012.89 1013.66 1014.18 1014.98 1015.73 1016.28 1016.58 1017.08 1017.33 1018.01 1018.44 1018.70 1018.69 1019.36 1019.92 1020.45 1020.54 1020.58 1020.55 1020.45 1020.01 1019.68
1005.75 1006.39 1006.02 1005.65 1006.17 1006.17 1006.86 1006.78 1007.60 1008.07 1008.55 1009.49 1010.18 1010.64 1011.15 1012.02 1012.94 1013.76 1014.24 1014.86 1015.83 1016.35 1016.84 1017.21 1017.44 1017.83 1018.65 1018.73 1018.82 1018.78 1019.37 1019.93 1020.17 1020.28 1020.09 1020.00 1019.87 1019.12
1006.80 1007.05 1007.46 1007.50 1007.06 1008.22 1007.41 1008.16 1007.91 1008.66 1008.65 1009.35 1010.07 1010.73 1011.29 1012.02 1012.80 1013.77 1014.37 1014.86 1015.70 1016.35 1016.78 1017.05 1017.42 1018.01 1018.39 1018.75 1018.81 1018.90 1019.00 1019.39 1019.63 1019.75 1019.72 1019.20 1018.98 1018.46
1008.10 1008.04 1008.20 1007.91 1008.77 1008.72 1008.40 1008.51 1008.97 1009.51 1009.86 1009.53 1010.00 1010.76 1011.39 1012.07 1012.88 1013.60 1014.51 1015.06 1015.68 1016.35 1016.76 1017.05 1017.20 1017.60 1018.13 1018.51 1018.90 1019.06 1018.96 1018.69 1018.60 1018.83 1018.93 1018.86 1018.19 1017.97
1009.44 1009.15 1009.61 1009.35 1008.85 1009.47 1009.27 1009.52 1009.72 1010.02 1010.73 1010.50 1010.82 1011.56 1011.88 1012.18 1012.93 1013.76 1014.60 1015.16 1015.77 1016.21 1016.63 1017.09 1017.22 1017.40 1018.04 1018.48 1018.90 1018.90 1018.81 1018.55 1018.23 1018.19 1018.44 1018.23 1018.13 1017.69
1010.14 1010.40 1010.49 1010.32 1009.85 1010.11 1010.01 1009.99 1010.39 1010.99 1011.20 1011.25 1011.60 1011.88 1012.19 1012.77 1013.07 1013.79 1014.71 1015.13 1015.65 1016.03 1016.35 1016.80 1017.13 1017.52 1017.85 1018.20 1018.34 1018.58 1018.53 1018.51 1018.39 1018.25 1017.99 1017.66 1017.35 1016.93
Thickness
5648 5649 5651 5654 5656 5656 5657 5659 5653 5644 5647 5654 5654 5658 5654 5650 5647 5642 5636 5631 5624 5617 5610 5602 5596 5591 5585 5579 5572 5565 5559 5553 5548 5543 5539 5534 5530 5527
5642 5644 5649 5653 5655 5654 5654 5655 5657 5652 5649 5656 5656 5655 5653 5648 5644 5639 5635 5630 5624 5618 5612 5604 5596 5588 5583 5577 5570 5564 5557 5551 5546 5541 5537 5531 5528 5523
5647 5646 5651 5651 5651 5651 5651 5651 5652 5652 5650 5653 5653 5650 5646 5645 5642 5638 5632 5626 5622 5618 5609 5604 5596 5588 5582 5575 5568 5562 5556 5550 5544 5539 5535 5531 5526 5522
5650 5648 5649 5648 5648 5649 5649 5650 5650 5650 5650 5648 5647 5643 5642 5640 5638 5634 5630 5623 5618 5614 5609 5603 5597 5589 5583 5573 5566 5560 5555 5548 5542 5537 5532 5530 5526 5521
5651 5648 5650 5650 5650 5649 5649 5649 5648 5646 5646 5644 5642 5638 5637 5635 5629 5628 5623 5619 5615 5610 5607 5601 5594 5588 5582 5572 5565 5559 5552 5547 5541 5536 5531 5528 5523 5520
5651 5650 5652 5651 5652 5649 5648 5648 5647 5642 5640 5640 5636 5634 5633 5631 5628 5623 5618 5616 5612 5605 5602 5598 5591 5583 5577 5571 5563 5558 5552 5547 5541 5535 5532 5528 5525 5519
5649 5652 5653 5653 5651 5650 5647 5648 5645 5640 5636 5636 5633 5630 5630 5627 5627 5622 5618 5612 5607 5604 5597 5592 5583 5579 5574 5567 5559 5556 5551 5547 5543 5536 5530 5526 5522 5518
5646 5648 5650 5648 5645 5645 5645 5646 5649 5643 5636 5634 5632 5630 5632 5628 5624 5618 5613 5603 5598 5600 5592 5589 5579 5574 5570 5566 5561 5555 5552 5546 5541 5535 5529 5524 5520 5516
5646 5645 5644 5645 5643 5641 5639 5641 5642 5642 5644 5637 5630 5630 5630 5629 5622 5614 5608 5604 5603 5598 5590 5583 5574 5568 5568 5564 5559 5554 5548 5544 5538 5534 5529 5521 5518 5514
5644 5643 5643 5643 5642 5639 5638 5633 5633 5632 5633 5632 5636 5637 5631 5626 5622 5616 5611 5601 5590 5585 5583 5573 5570 5564 5562 5557 5552 5548 5543 5539 5534 5529 5525 5518 5515 5511
5635 5638 5640 5642 5640 5634 5631 5626 5625 5624 5624 5626 5623 5626 5623 5617 5612 5603 5595 5586 5575 5572 5571 5567 5560 5554 5553 5550 5546 5542 5536 5531 5526 5523 5520 5515 5511 5506
5629 5631 5631 5636 5631 5624 5628 5624 5621 5624 5616 5610 5610 5609 5607 5605 5602 5598 5589 5578 5564 5558 5563 5558 5549 5547 5537 5539 5536 5533 5529 5524 5520 5517 5513 5510 5505 5500
5629 5629 5630 5626 5624 5623 5624 5621 5624 5616 5607 5604 5600 5595 5594 5589 5587 5585 5583 5579 5564 5561 5558 5553 5540 5535 5530 5525 5522 5521 5519 5515 5512 5509 5506 5503 5499 5494
5626 5628 5627 5618 5616 5615 5612 5611 5605 5601 5597 5592 5587 5581 5579 5580 5578 5577 5574 5570 5563 5560 5553 5546 5537 5532 5521 5510 5511 5508 5507 5507 5506 5502 5502 5499 5493 5489
5621 5621 5616 5608 5603 5601 5600 5597 5591 5588 5583 5577 5575 5571 5569 5564 5563 5566 5561 5557 5551 5547 5542 5538 5532 5524 5519 5511 5504 5500 5498 5497 5497 5496 5494 5490 5485 5482
5594 5599 5597 5592 5592 5593 5583 5581 5583 5581 5576 5570 5566 5562 5556 5552 5548 5551 5542 5539 5533 5527 5528 5525 5522 5517 5507 5503 5500 5494 5490 5486 5486 5486 5484 5482 5480 5478
5557 5575 5580 5579 5577 5576 5570 5569 5568 5567 5564 5557 5552 5549 5547 5545 5541 5536 5533 5525 5519 5513 5511 5508 5507 5505 5501 5494 5485 5486 5482 5478 5477 5476 5475 5473 5472 5470
5559 5550 5553 5561 5568 5566 5563 5559 5556 5555 5554 5549 5545 5544 5541 5536 5533 5527 5523 5515 5509 5504 5501 5496 5495 5489 5485 5483 5484 5476 5474 5469 5468 5468 5467 5464 5462 5462
5527 5526 5533 5538 5544 5552 5548 5551 5540 5547 5545 5539 5536 5535 5532 5527 5518 5511 5508 5504 5496 5492 5489 5486 5484 5478 5469 5471 5471 5472 5466 5461 5459 5458 5460 5458 5454 5455
5503 5507 5506 5511 5520 5518 5529 5524 5531 5528 5529 5526 5521 5520 5517 5511 5506 5498 5494 5491 5485 5480 5478 5477 5474 5466 5464 5461 5460 5460 5458 5454 5453 5451 5450 5453 5454 5452
5478 5484 5489 5495 5494 5494 5503 5509 5506 5505 5504 5509 5508 5505 5502 5498 5492 5487 5479 5476 5472 5467 5466 5463 5462 5459 5455 5452 5449 5445 5445 5449 5448 5445 5444 5443 5445 5443
5455 5464 5463 5470 5479 5470 5480 5483 5483 5484 5480 5485 5486 5484 5483 5482 5477 5473 5466 5462 5457 5454 5451 5448 5448 5448 5443 5440 5435 5434 5435 5436 5437 5435 5434 5436 5433 5427
5433 5435 5439 5444 5452 5451 5456 5459 5459 5456 5459 5462 5462 5464 5464 5460 5460 5456 5450 5448 5444 5441 5440 5437 5436 5432 5431 5428 5426 5422 5422 5423 5421 5420 5421 5424 5425 5427